Canadian, TX

7:39 PM CST on December 06, 2019 (GMT -0600)
Hemphill County

Weather History for KHHF - October, 2019

Change the Weather History Date:

Thursday, October 31, 2019

  Actual Average (KPPA) Record (KPPA)
Temperature  
Mean Temperature 36 °F -  
Max Temperature 57 °F 62 °F 89 °F (2016)
Min Temperature 14 °F 38 °F 12 °F (1993)
Degree Days  
Heating Degree Days 30    
Moisture  
Dew Point 13 °F    
Average Humidity 52    
Maximum Humidity 85    
Minimum Humidity 12    
Precipitation  
Precipitation 0.00 in - - ()
Sea Level Pressure  
Sea Level Pressure 30.32 in    
Wind  
Wind Speed 6 mph ()    
Max Wind Speed 12 mph    
Max Gust Speed 18 mph    
Visibility 10.0 miles    
Events      
Averages and records for this station are not official NWS values.
T = Trace of Precipitation, MM = Missing Value Source: Averaged Metar Reports

Daily Weather History Graph

Daily Weather History Graph

Search for Another Location

Airport or City:

Astronomy

Oct. 31, 2019 Rise Set
Actual Time 8:02 AM CDT 6:47 PM CDT
Civil Twilight 7:36 AM CDT 7:13 PM CDT
Nautical Twilight 7:06 AM CDT 7:43 PM CDT
Astronomical Twilight 6:36 AM CDT 8:13 PM CDT
Moon 11:47 AM CDT (10/31) 9:50 PM CDT (10/31)
Length of Visible Light 11h 37m
Length of Day
10h 44m
Waxing Crescent, 16% of the Moon is Illuminated
Oct 31
Waxing Crescent
Nov 4
First Quarter
Nov 12
Full
Nov 19
Last Quarter
Nov 26
New

Hourly Weather History & Observations

Time (CDT) Temp. Windchill Dew Point Humidity Pressure Visibility Wind Dir Wind Speed Gust Speed Precip Events Conditions
12:15 AM 22.6 °F 11.9 °F 16.7 °F 78% 30.40 in 10.0 mi WNW 10.4 mph - N/A   Clear
12:35 AM 22.1 °F 14.7 °F 16.3 °F 79% 30.40 in 10.0 mi NW 5.8 mph - N/A   Clear
12:55 AM 21.7 °F 13.2 °F 15.8 °F 78% 30.40 in 10.0 mi WNW 6.9 mph - N/A   Clear
1:15 AM 21.4 °F 16.6 °F 15.1 °F 77% 30.40 in 10.0 mi West 3.5 mph - N/A   Clear
1:35 AM 19.9 °F 13.4 °F 14.7 °F 80% 30.40 in 10.0 mi West 4.6 mph - N/A   Clear
1:55 AM 18.1 °F 10.0 °F 14.0 °F 84% 30.39 in 10.0 mi WSW 5.8 mph - N/A   Clear
2:15 AM 18.5 °F 10.4 °F 14.5 °F 85% 30.39 in 10.0 mi SW 5.8 mph - N/A   Clear
2:35 AM 19.6 °F 10.6 °F 14.5 °F 81% 30.39 in 10.0 mi SW 6.9 mph - N/A   Clear
2:55 AM 19.2 °F 11.3 °F 14.7 °F 83% 30.39 in 10.0 mi WSW 5.8 mph - N/A   Clear
3:15 AM 18.7 °F 10.6 °F 14.4 °F 83% 30.40 in 10.0 mi WSW 5.8 mph - N/A   Clear
3:35 AM 19.2 °F 14.1 °F 14.5 °F 82% 30.39 in 10.0 mi WSW 3.5 mph - N/A   Clear
3:55 AM 19.9 °F - 14.5 °F 80% 30.39 in 10.0 mi Calm Calm - N/A   Clear
4:15 AM 18.3 °F 11.5 °F 14.0 °F 83% 30.38 in 10.0 mi SSW 4.6 mph - N/A   Clear
4:35 AM 18.1 °F 10.0 °F 13.6 °F 83% 30.38 in 10.0 mi SSW 5.8 mph - N/A   Clear
4:55 AM 18.1 °F 8.9 °F 13.3 °F 81% 30.38 in 10.0 mi SW 6.9 mph - N/A   Clear
5:15 AM 18.5 °F 8.4 °F 13.1 °F 79% 30.38 in 10.0 mi WSW 8.1 mph - N/A   Clear
5:35 AM 18.5 °F 9.3 °F 13.1 °F 79% 30.39 in 10.0 mi WSW 6.9 mph - N/A   Clear
5:55 AM 17.4 °F - 12.0 °F 79% 30.38 in 10.0 mi Calm Calm - N/A   Clear
6:15 AM 19.8 °F - 12.7 °F 74% 30.38 in 10.0 mi Calm Calm - N/A   Clear
6:35 AM 16.9 °F - 11.5 °F 79% 30.38 in 10.0 mi Calm Calm - N/A   Clear
6:55 AM 15.6 °F - 11.3 °F 83% 30.38 in 10.0 mi Calm Calm - N/A   Clear
7:15 AM 14.5 °F 5.7 °F 10.6 °F 84% 30.38 in 10.0 mi SW 5.8 mph - N/A   Clear
7:35 AM 14.9 °F 6.1 °F 10.4 °F 82% 30.38 in 10.0 mi SW 5.8 mph - N/A   Clear
7:55 AM 15.3 °F 7.9 °F 10.9 °F 83% 30.38 in 10.0 mi SW 4.6 mph - N/A   Clear
8:15 AM 16.2 °F 10.6 °F 11.3 °F 81% 30.38 in 10.0 mi WSW 3.5 mph - N/A   Clear
8:35 AM 16.2 °F 10.6 °F 11.5 °F 82% 30.39 in 10.0 mi WSW 3.5 mph - N/A   Clear
8:55 AM 19.0 °F - 14.0 °F 81% 30.39 in 10.0 mi Calm Calm - N/A   Clear
9:15 AM 24.4 °F 17.5 °F 15.6 °F 69% 30.39 in 10.0 mi West 5.8 mph - N/A   Clear
9:35 AM 27.3 °F 22.0 °F 15.1 °F 60% 30.39 in 10.0 mi West 4.6 mph - N/A   Clear
9:55 AM 30.2 °F 22.6 °F 14.2 °F 51% 30.40 in 10.0 mi West 8.1 mph - N/A   Clear
10:15 AM 32.2 °F 27.7 °F 12.4 °F 44% 30.40 in 10.0 mi West 4.6 mph - N/A   Clear
10:35 AM 33.4 °F 26.6 °F 11.3 °F 40% 30.40 in 10.0 mi NW 8.1 mph - N/A   Clear
10:55 AM 35.2 °F 28.8 °F 9.7 °F 35% 30.40 in 10.0 mi NW 8.1 mph - N/A   Clear
11:15 AM 36.5 °F 30.3 °F 10.8 °F 35% 30.40 in 10.0 mi WNW 8.1 mph - N/A   Clear
11:35 AM 38.3 °F 33.2 °F 9.1 °F 30% 30.40 in 10.0 mi West 6.9 mph - N/A   Clear
11:55 AM 40.3 °F 35.5 °F 9.9 °F 29% 30.39 in 10.0 mi WNW 6.9 mph - N/A   Clear
12:15 PM 41.5 °F 37.1 °F 8.6 °F 26% 30.39 in 10.0 mi NW 6.9 mph - N/A   Clear
12:35 PM 43.3 °F 39.2 °F 7.7 °F 23% 30.38 in 10.0 mi WNW 6.9 mph - N/A   Clear
12:55 PM 44.1 °F 40.1 °F 8.4 °F 23% 30.36 in 10.0 mi West 6.9 mph - N/A   Clear
1:35 PM 47.7 °F - 8.8 °F 21% 30.33 in 10.0 mi WNW 5.8 mph - N/A   Clear
1:55 PM 49.1 °F - 10.4 °F 21% 30.32 in 10.0 mi West 5.8 mph - N/A   Clear
2:15 PM 50.0 °F - 9.7 °F 20% 30.30 in 10.0 mi West 8.1 mph - N/A   Clear
2:35 PM 51.1 °F - 10.2 °F 19% 30.29 in 10.0 mi West 6.9 mph 16.1 mph N/A   Clear
2:55 PM 51.6 °F - 10.6 °F 19% 30.28 in 10.0 mi WSW 5.8 mph - N/A   Clear
3:15 PM 52.5 °F - 9.1 °F 18% 30.27 in 10.0 mi West 9.2 mph - N/A   Clear
3:35 PM 53.6 °F - 9.1 °F 17% 30.26 in 10.0 mi SW 6.9 mph - N/A   Clear
3:55 PM 54.9 °F - 9.7 °F 16% 30.26 in 10.0 mi West 6.9 mph - N/A   Clear
4:15 PM 54.9 °F - 6.3 °F 14% 30.25 in 10.0 mi SW 3.5 mph - N/A   Clear
4:35 PM 55.9 °F - 7.0 °F 14% 30.24 in 10.0 mi SW 8.1 mph - N/A   Clear
4:55 PM 56.5 °F - 4.5 °F 12% 30.23 in 10.0 mi SW 5.8 mph - N/A   Clear
5:15 PM 57.0 °F - 7.9 °F 14% 30.22 in 10.0 mi SSW 8.1 mph - N/A   Clear
5:35 PM 56.5 °F - 6.8 °F 14% 30.22 in 10.0 mi SW 6.9 mph - N/A   Clear
5:55 PM 56.3 °F - 7.5 °F 14% 30.22 in 10.0 mi SSW 6.9 mph - N/A   Clear
6:35 PM 51.1 °F - 13.6 °F 23% 30.21 in 10.0 mi SSW 6.9 mph - N/A   Clear
6:55 PM 46.8 °F - 14.4 °F 27% 30.21 in 10.0 mi South 5.8 mph - N/A   Clear
7:15 PM 43.3 °F 39.9 °F 16.0 °F 33% 30.21 in 10.0 mi South 5.8 mph - N/A   Clear
7:35 PM 44.2 °F 41.0 °F 17.6 °F 34% 30.22 in 10.0 mi South 5.8 mph - N/A   Clear
7:55 PM 43.2 °F 39.7 °F 18.1 °F 37% 30.22 in 10.0 mi SSW 5.8 mph - N/A   Clear
8:15 PM 41.5 °F 37.8 °F 18.5 °F 40% 30.22 in 10.0 mi SSW 5.8 mph - N/A   Clear
8:35 PM 36.7 °F 31.2 °F 20.5 °F 52% 30.23 in 10.0 mi SSW 6.9 mph - N/A   Clear
8:55 PM 38.8 °F 33.8 °F 20.8 °F 48% 30.22 in 10.0 mi SSW 6.9 mph - N/A   Clear
9:15 PM 37.4 °F 32.1 °F 21.0 °F 52% 30.22 in 10.0 mi WSW 6.9 mph - N/A   Clear
9:35 PM 36.3 °F 30.8 °F 21.6 °F 55% 30.22 in 10.0 mi WSW 6.9 mph - N/A   Clear
9:55 PM 34.7 °F 28.8 °F 21.7 °F 59% 30.22 in 10.0 mi WSW 6.9 mph - N/A   Clear
10:15 PM 36.7 °F 29.9 °F 22.8 °F 57% 30.21 in 10.0 mi SW 9.2 mph - N/A   Clear
10:35 PM 40.1 °F 33.6 °F 22.1 °F 49% 30.21 in 10.0 mi SSW 10.4 mph - N/A   Clear
10:55 PM 42.4 °F 36.1 °F 20.1 °F 41% 30.21 in 10.0 mi SSW 11.5 mph 18.4 mph N/A   Clear
11:15 PM 42.3 °F 37.3 °F 19.9 °F 41% 30.21 in 10.0 mi SW 8.1 mph - N/A   Clear
11:35 PM 39.2 °F 33.6 °F 20.5 °F 47% 30.20 in 10.0 mi SW 8.1 mph - N/A   Clear
11:55 PM 38.8 °F 32.1 °F 20.7 °F 48% 30.19 in 10.0 mi SSW 10.4 mph - N/A   Clear